全部
Lizard Island Airport (Lizard Island, Queensland) LZR 天气
There is no TAF data available at LZR or any nearby airports.
There is no METAR data available at LZR. Showing METAR data for YCFL (23 mi SW).
YCFL近期METAR历史数据(LZR无数据)
| Date | Time (AEST) | Flight Rules | Wind Dir. | Speed | Type | Height AGL (ft) | Visibility | Temp (°C) | Temp (°F) | Dew Point (°C) | Dew Point (°F) | Rel. Humid. | Pressure | Density Altitude | Remarks |
|---|---|---|---|---|---|---|---|---|---|---|---|---|---|---|---|
| 04-五月 | 08:00 | n/a | 140° | 14 kt | Missing | 26° | 78° | 21° | 69° | 74% | 1013 mb | 1,372 ft | |||
| 04-五月 | 07:00 | n/a | 140° | 15 kt | Missing | 25° | 77° | 20° | 68° | 74% | 1013 mb | 1,252 ft | |||
| 04-五月 | 06:00 | n/a | 150° | 14 kt | Missing | 25° | 77° | 20° | 68° | 74% | 1012 mb | 1,282 ft | |||
| 04-五月 | 05:00 | n/a | 150° | 12 kt | Missing | 25° | 77° | 20° | 68° | 74% | 1012 mb | 1,282 ft | |||
| 04-五月 | 04:00 | n/a | 150° | 13 kt | Missing | 25° | 77° | 20° | 68° | 74% | 1012 mb | 1,282 ft | |||
| 04-五月 | 03:00 | n/a | 150° | 14 kt | Missing | 25° | 77° | 20° | 68° | 74% | 1012 mb | 1,282 ft | |||
| 04-五月 | 02:00 | n/a | 150° | 13 kt | Missing | 25° | 77° | 20° | 68° | 74% | 1013 mb | 1,252 ft | |||
| 04-五月 | 01:00 | n/a | 150° | 13 kt | Missing | 25° | 77° | 21° | 69° | 79% | 1013 mb | 1,252 ft | |||
| 04-五月 | 00:00 | n/a | 150° | 14 kt | Missing | 25° | 77° | 21° | 69° | 79% | 1014 mb | 1,223 ft | |||
| 03-五月 | 23:00 | n/a | 140° | 13 kt | Missing | 25° | 77° | 21° | 69° | 79% | 1014 mb | 1,223 ft | |||
| 03-五月 | 22:00 | n/a | 150° | 14 kt | Missing | 25° | 77° | 21° | 69° | 79% | 1014 mb | 1,223 ft | |||
| 03-五月 | 21:00 | n/a | 150° | 13 kt | Missing | 25° | 77° | 21° | 69° | 79% | 1014 mb | 1,223 ft | |||
| 03-五月 | 20:00 | n/a | 150° | 14 kt | Missing | 25° | 77° | 21° | 69° | 79% | 1013 mb | 1,252 ft | |||
| 03-五月 | 19:00 | n/a | 150° | 14 kt | Missing | 25° | 77° | 21° | 69° | 79% | 1013 mb | 1,252 ft | |||
| 03-五月 | 18:00 | n/a | 160° | 15 kt | Missing | 26° | 78° | 21° | 69° | 74% | 1012 mb | 1,402 ft | |||
| 03-五月 | 17:00 | n/a | 160° | 15 kt | Missing | 26° | 78° | 22° | 71° | 79% | 1012 mb | 1,402 ft | |||
| 03-五月 | 16:00 | n/a | 160° | 18 kt | Missing | 27° | 80° | 22° | 71° | 74% | 1011 mb | 1,551 ft | |||
| 03-五月 | 15:00 | n/a | 150° | 18 kt | Missing | 28° | 82° | 23° | 73° | 74% | 1012 mb | 1,642 ft | |||
| 03-五月 | 14:00 | n/a | 150° | 17 kt | Missing | 28° | 82° | 23° | 73° | 74% | 1012 mb | 1,642 ft | |||
| 03-五月 | 13:00 | n/a | 160° | 19 kt | Missing | 29° | 84° | 23° | 73° | 70% | 1013 mb | 1,732 ft | |||
| 03-五月 | 12:00 | n/a | 150° | 17 kt | Missing | 29° | 84° | 23° | 73° | 70% | 1014 mb | 1,703 ft | |||
| 03-五月 | 11:00 | n/a | 140° | 17 kt | Missing | 29° | 84° | 24° | 75° | 74% | 1014 mb | 1,703 ft | |||
| 03-五月 | 10:00 | n/a | 140° | 17 kt | Missing | 28° | 82° | 23° | 73° | 74% | 1015 mb | 1,553 ft | |||
| 03-五月 | 09:00 | n/a | 140° | 15 kt | Missing | 27° | 80° | 23° | 73° | 79% | 1014 mb | 1,463 ft |
登录
| 您的浏览器不支持. 升级您的浏览器 |
